Simultaneous Nadir Overpasses (SNOs) Predictions

Prediction of SNOs between NOAA-19 and TERRA Satellite Orbit:

Table of predicted SNOs for the next 14.0 days since TLE Epoch: 7/2/2016
Index Date (NOAA-19) Time (NOAA-19) Lat,Lon (NOAA-19) SZA (NOAA-19 ) Date (TERRA) Time (TERRA) Lat,Lon (TERRA) SZA (TERRA ) Distance(km) Time Diff (sec)
1 07/02/2016 20:50:15 -74.05, 54.26 128.90 07/02/2016 20:51:26 -73.98, 54.75 128.93 16.74 71
2 07/02/2016 21:41:18 73.84,-137.98 50.92 07/02/2016 21:40:54 73.85,-137.90 50.93 2.78 24
3 07/05/2016 02:24:21 73.89, 151.19 51.16 07/05/2016 02:25:11 73.88, 151.08 51.15 3.39 50
4 07/05/2016 03:15:13 -73.81, -41.34 128.91 07/05/2016 03:14:39 -73.81, -41.43 128.92 2.71 34
5 07/07/2016 07:58:17 -73.91,-112.30 128.60 07/07/2016 07:58:55 -73.89,-112.32 128.61 2.17 38
6 07/07/2016 08:49:22 73.80, 55.20 51.31 07/07/2016 08:48:22 73.80, 55.13 51.30 2.40 60
7 07/09/2016 13:32:26 73.91, -15.78 51.67 07/09/2016 13:32:38 73.88, -15.78 51.64 3.14 12
8 07/09/2016 14:23:19 -73.82, 151.71 128.41 07/09/2016 14:22:07 -73.82, 151.72 128.43 0.41 72
9 07/11/2016 18:15:39 74.45, -87.94 52.46 07/11/2016 18:16:47 74.32, -85.85 52.40 64.54 68
10 07/11/2016 19:06:22 -73.88, 80.86 128.07 07/11/2016 19:06:23 -73.90, 80.83 128.05 2.66 1
11 07/13/2016 23:49:27 -74.03, 9.75 127.61 07/13/2016 23:50:39 -73.98, 9.93 127.65 8.21 72
12 07/14/2016 00:40:31 73.90, 177.32 52.28 07/14/2016 00:40:06 73.88, 177.35 52.25 2.52 25
